Location: Hylvaty SDH
(49.9612°N, 16.4057°E)
Time: 12:27:53
(UTC+01:00)

Tiros 1 - Pass Details

Date: 11 October 2020
Orbit: 630 x 663 km, 48.4° (Epoch: 28 October)

Event Time Altitude Azimuth Distance (km) Brightness Sun altitude
Rises 14:05:05 0° 272° (W) 2,937 10.8 29.9°
Reaches altitude 10° 14:07:24 10° 270° (W) 2,033 10.1 29.7°
Maximum altitude 14:12:04 71° 187° (S) 683 8.2 29.4°
Drops below altitude 10° 14:16:47 10° 104° (ESE) 2,053 9.7 29.1°
Sets 14:19:08 0° 102° (ESE) 2,968 10.4 28.9°
